Time,TemperatureF,DewpointF,PressureIn,WindDirection,WindDirectionDegrees,WindSpeedMPH,WindSpeedGustMPH,Humidity,HourlyPrecipIn,Conditions,Clouds,dailyrainin,SoftwareType,DateUTC
2013-02-20 00:00:00,15.0,6.0,-100.00,West,261,3.0,8.0,68,-99.99,,,-99.99,,2013-02-20 08:00:00,
2013-02-20 01:00:00,15.0,7.0,-100.00,WSW,252,3.0,9.0,70,-99.99,,,-99.99,,2013-02-20 09:00:00,
2013-02-20 02:00:00,15.0,7.0,-100.00,West,273,5.0,10.0,70,-99.99,,,-99.99,,2013-02-20 10:00:00,
2013-02-20 03:00:00,15.0,6.0,-100.00,West,263,7.0,12.0,68,-99.99,,,-99.99,,2013-02-20 11:00:00,
2013-02-20 04:00:00,16.0,7.0,-100.00,NE,52,3.0,6.0,67,-99.99,,,-99.99,,2013-02-20 12:00:00,
2013-02-20 05:00:00,16.0,8.0,-100.00,SSE,166,2.0,5.0,69,-99.99,,,-99.99,,2013-02-20 13:00:00,
2013-02-20 06:00:00,16.0,5.0,-100.00,SW,234,2.0,6.0,62,-99.99,,,-99.99,,2013-02-20 14:00:00,
2013-02-20 07:00:00,15.0,7.0,-100.00,WNW,291,3.0,7.0,69,-99.99,,,-99.99,,2013-02-20 15:00:00,
2013-02-20 09:00:00,17.0,11.0,-100.00,WSW,243,10.0,12.0,78,-99.99,,,-99.99,,2013-02-20 17:00:00,
2013-02-20 10:00:00,19.0,12.0,-100.00,SW,230,10.0,12.0,74,-99.99,,,-99.99,,2013-02-20 18:00:00,
2013-02-20 11:00:00,19.0,13.0,-100.00,SW,227,10.0,12.0,76,-99.99,,,-99.99,,2013-02-20 19:00:00,
2013-02-20 12:00:00,19.0,14.0,-100.00,SW,224,9.0,12.0,79,-99.99,,,-99.99,,2013-02-20 20:00:00,
2013-02-20 13:00:00,21.0,16.0,-100.00,SW,222,8.0,13.0,80,-99.99,,,-99.99,,2013-02-20 21:00:00,
2013-02-20 13:52:00,21.0,16.0,-100.00,SW,222,8.0,13.0,80,-99.99,,,-99.99,,2013-02-20 21:52:00,
2013-02-20 14:00:00,19.0,16.0,-100.00,SW,235,5.0,9.0,86,-99.99,,,-99.99,,2013-02-20 22:00:00,
2013-02-20 15:00:00,20.0,15.0,-100.00,SW,223,6.0,8.0,82,-99.99,,,-99.99,,2013-02-20 23:00:00,
2013-02-20 16:00:00,18.0,16.0,-100.00,SW,233,7.0,9.0,90,-99.99,,,-99.99,,2013-02-21 00:00:00,
2013-02-20 17:00:00,17.0,15.0,-100.00,WSW,248,5.0,7.0,91,-99.99,,,-99.99,,2013-02-21 01:00:00,
2013-02-20 18:00:00,15.0,15.0,-100.00,WSW,240,8.0,13.0,98,-99.99,,,-99.99,,2013-02-21 02:00:00,
2013-02-20 19:00:00,15.0,15.0,-100.00,SW,230,12.0,14.0,100,-99.99,,,-99.99,,2013-02-21 03:00:00,
2013-02-20 20:00:00,15.0,13.0,-100.00,SW,236,10.0,12.0,92,-99.99,,,-99.99,,2013-02-21 04:00:00,
2013-02-20 20:52:00,15.0,13.0,-100.00,SW,236,10.0,12.0,92,-99.99,,,-99.99,,2013-02-21 04:52:00,
2013-02-20 21:00:00,16.0,13.0,-100.00,WSW,247,10.0,12.0,87,-99.99,,,-99.99,,2013-02-21 05:00:00,
2013-02-20 21:59:00,16.0,13.0,-100.00,WSW,247,10.0,12.0,87,-99.99,,,-99.99,,2013-02-21 05:59:00,
2013-02-20 22:00:00,15.0,13.0,-100.00,WSW,242,12.0,14.0,91,-99.99,,,-99.99,,2013-02-21 06:00:00,
2013-02-20 23:00:00,15.0,13.0,-100.00,WSW,245,10.0,12.0,92,-99.99,,,-99.99,,2013-02-21 07:00:00,